Regional Weather Roundup
Issued by NWS

Home | Current Version | Previous Version | Text Only | Print | Product List | Glossary Off
Versions: 1 2 3 4 5 6 7 8 9 10 11 12 13 14 15 16 17 18 19 20 21 22 23 24 25 26 27 28 29 30 31 32 33 34 35 36 37 38 39 40 41 42 43 44 45 46 47 48 49 50

000
ASUS43 KDTX 122101
RWRMI
MICHIGAN HOURLY REGIONAL WEATHER ROUNDUP
NATIONAL WEATHER SERVICE DETROIT/PONTIAC MI
500 PM EDT SAT JUL 12 2014

NOTE: "FAIR" INDICATES FEW OR NO CLOUDS BELOW 12,000 FEET WITH NO
SIGNIFICANT WEATHER AND/OR OBSTRUCTION TO VISIBILITY.

MIZ047>049-052>055-059>063-066>070-074>076-081>083-122200-
SOUTHEAST LOWER MICHIGAN

CITY           SKY/WX    TMP DP  RH WIND       PRES   REMARKS
ADRIAN         CLOUDY    84  68  58 SW10      30.02F
ALMA           CLOUDY    78  65  64 CALM      29.99F
ANN ARBOR      CLOUDY    83  65  54 S5        30.01F
BAD AXE        CLOUDY    81  60  48 S9        30.01F
CARO           CLOUDY    82  63  53 S6        30.00F
DETROIT CITY   PTSUNNY   85  61  44 S13       30.02F
DETROIT        CLOUDY    84  64  50 S12       30.02F
FLINT          CLOUDY    83  63  50 S9G25     30.01F
GROSSE ILE     PTSUNNY   81  66  61 SE8       30.02F
HILLSDALE      CLOUDY    79  71  77 CALM      30.02F
HOWELL         CLOUDY    80  65  60 S8        30.01F

CITY           SKY/WX    TMP DP  RH WIND       PRES   REMARKS
JACKSON        CLOUDY    80  68  66 S9        30.00F
LAMBERTVILLE   CLOUDY    86  64  48 S9        30.02F
LANSING        CLOUDY    81  67  62 S13       29.99F
LAPEER         MOCLDY    82  60  47 SW10      30.02F
MASON          CLOUDY    79  68  68 S7        29.99F
MONROE         CLOUDY    84  63  48 S10       30.00F
PONTIAC        CLOUDY    82  61  48 S9        30.02F
PORT HOPE        N/A     83  58  42 SW7       29.99F
PORT HURON     PTSUNNY   81  64  57 S10       30.04F
TRI CITIES     CLOUDY    81  66  60 S3        29.99F
TROY           PTSUNNY   84  59  41 SW9       30.03F
SAGINAW HB     CLOUDY    81  64  57 S3        29.99F
$$
MIZ043>046-050>051-056>058-064>065-071>073-077>080-122200-
SOUTHWEST LOWER MICHIGAN

CITY           SKY/WX    TMP DP  RH WIND       PRES   REMARKS
BATTLE CREEK   LGT RAIN  77  69  76 SW13      30.03R
BENTON HARBOR  CLOUDY    74  69  85 VRB6      30.01S
BIG RAPIDS     CLOUDY    74  67  77 SW6       29.99R
COLDWATER      CLOUDY    78  70  77 SW15      30.03R
FREMONT        DRIZZLE   73  69  88 SW9       29.98F
HOLLAND        CLOUDY    74  70  87 SW8       30.01F
GRAND RAPIDS   LGT RAIN  77  70  79 SW12      30.00S
IONIA          DRIZZLE   79  69  69 SW9       29.99S
KALAMAZOO      CLOUDY    75  68  78 SW10      30.04S
LUDINGTON      CLOUDY    71  68  92 S13       29.97F FOG
MARSHALL       CLOUDY    78  69  73 SW6       30.01R
MOUNT PLEASANT CLOUDY    78  67  68 SE5       29.97F
MUSKEGON       CLOUDY    73  68  84 S14       29.98F
SOUTH HAVEN    CLOUDY    74  71  88 SW6       30.01F
$$
MIZ016>042-122200-
NORTHERN LOWER MICHIGAN

CITY           SKY/WX    TMP DP  RH WIND       PRES   REMARKS
ALPENA         CLOUDY    80  64  58 SW9       29.97F
BEAVER ISLAND  CLOUDY    69  62  77 SW8       29.94F
BELLAIRE       CLOUDY    78  65  63 CALM      29.94F
CADILLAC       CLOUDY    75  67  76 S8        29.98F
CHARLEVOIX     CLOUDY    77  66  68 S7        29.97F
FRANKFORT      CLOUDY    69  64  83 SW7G17    29.96R
GAYLORD        CLOUDY    76  64  66 SW8       29.98F
GRAYLING       CLOUDY    76  63  65 S6        29.99F
HARBOR SPRINGS CLOUDY    72  64  76 CALM      29.94F
HOUGHTON LAKE  CLOUDY    75  66  73 S13       30.00F
MANISTEE       CLOUDY    72  66  83 W6        29.97F
OSCODA         CLOUDY    81  61  50 S13       29.98F
PELLSTON       CLOUDY    77  66  68 S3        29.95F
ROGERS CITY    CLOUDY    74  71  88 CALM      29.97F
TRAVERSE CITY  CLOUDY    80  65  59 VRB6      29.93F
$$
MIZ007>008-015-122200-
EASTERN UPPER MICHIGAN

CITY           SKY/WX    TMP DP  RH WIND       PRES   REMARKS
KINROSS        CLOUDY    73  64  73 SW8       29.95F
MACKINAC ISLAN CLOUDY    70  62  75 W9        29.95F
NEWBERRY       CLOUDY    71  64  79 S10G16    29.93F
S. S. MARIE    CLOUDY    76  65  68 SW10      29.93F
$$
MIZ004>006-011>014-085-122200-
CENTRAL UPPER MICHIGAN

CITY           SKY/WX    TMP DP  RH WIND       PRES   REMARKS
MANISTIQUE     CLOUDY    65  60  83 S8        29.93F
ESCANABA       CLOUDY    75  64  69 S9G18     29.90F
MENOMINEE      CLOUDY    79  68  69 SW13      29.91F
SAWYER-GWINN   SUNNY     73  66  78 NE7       29.92F
$$
MIZ001>003-009>011-084-122200-
WESTERN UPPER MICHIGAN

CITY           SKY/WX    TMP DP  RH WIND       PRES   REMARKS
IRON MOUNTAIN  CLOUDY    81  68  64 S9        29.90F
HOUGHTON       CLOUDY    71  61  70 VRB3      29.92F
COPPER HARBOR    N/A     61  54  77 CALM      29.91F
IRONWOOD       CLOUDY    70  55  60 NW3       29.92F
$$

ABBREVIATIONS USED IN REMARKS
   TC - TEMPERATURE IN CELSIUS
  WCI - WIND CHILL INDEX
   HX - HEAT INDEX
  VSB - VISIBILITY



USA.gov is the U.S. government's official web portal to all federal, state and local government web resources and services.